Regional Weather Roundup
Issued by NWS

Home | Current Version | Previous Version | Graphics & Text | Print | Product List | Glossary On
Versions: 1 2 3 4 5 6 7 8 9 10 11 12 13 14 15 16 17 18 19 20 21 22 23 24 25 26 27 28 29 30 31 32 33 34 35 36 37 38 39 40 41 42 43 44 45 46 47 48 49 50
000
ASUS45 KBOU 212010
RWRCO

WEATHER ROUNDUP FOR COLORADO
NATIONAL WEATHER SERVICE DENVER/BOULDER CO
100 PM MST TUE NOV 21 2017

NOTE: "FAIR" INDICATES FEW OR NO CLOUDS BELOW 12000 FEET WITH NO
SIGNIFICANT WEATHER AND/OR OBSTRUCTIONS TO VISIBILITY.

COZ001>005-013-030-031-212100-
...NORTHWEST COLORADO...

CITY           SKY/WX    TMP DP  RH WIND       PRES   REMARKS
CRAIG          CLOUDY    49  34  56 W10       30.32F
HAYDEN         CLOUDY    42  34  73 S3        30.35S
MEEKER         FAIR      48  35  60 CALM      30.34F
RABBIT EARS PA HVY SNOW  28  28 100 W8G24     30.37S VSB<1/4 WCI  20
STEAMBOAT SPGS CLOUDY    39  34  81 E6        30.34S
WALDEN         CLOUDY    36  30  80 N5        30.34S
$$

COZ006>008-011-212100-
...WEST CENTRAL VALLEYS...

CITY           SKY/WX    TMP DP  RH WIND       PRES   REMARKS
GRAND JUNCTION FAIR      53  20  27 CALM      30.34F
MONTROSE       FAIR      51  22  31 W3        30.36F
EAGLE          CLOUDY    47  31  53 VRB3      30.38S
RIFLE          CLOUDY    46  31  55 E5        30.37F
DELTA          FAIR      54  21  27 W3        30.35F
NUCLA          FAIR      54  14  20 CALM      30.37F
$$

COZ017>023-064>068-212100-
...SOUTHWEST COLORADO...

CITY           SKY/WX    TMP DP  RH WIND       PRES   REMARKS
DURANGO        FAIR      53  21  28 VRB5      30.28S
CORTEZ         FAIR      63  30  28 NW17G26   30.28F
PAGOSA SPRINGS FAIR      52  19  27 SW7       30.30S
TELLURIDE      FAIR      46  25  43 N5        30.41F
WOLF CREEK PAS FAIR      34  18  51 N3        30.50R
$$

COZ009-010-012-014-032>034-037-058>063-212100-
...CENTRAL COLORADO...

CITY           SKY/WX    TMP DP  RH WIND       PRES   REMARKS
ASPEN          PTSUNNY   44  32  62 N6        30.38F
BUENA VISTA    PTSUNNY   53  22  29 W9G17     30.28S
COPPER MTN     CLOUDY    30  27  86 MISG      30.41F FOG
BERTHOUD PASS  CLOUDY    21  10  63 NW32G43   30.34F WCI   2
COTTONWOOD PAS FAIR      46  23  39 W18G29    30.34S
GUNNISON       FAIR      50  30  46 VRB3      30.34F
KREMMLING      PTSUNNY   46  34  61 NW3       30.36S
LEADVILLE      PTSUNNY   34  24  67 W21       30.36S WCI  22
MONARCH PASS   PTSUNNY   28  27  93 W22G29    30.51S WCI  15
SALIDA         PTSUNNY   56  22  27 SW8       30.34F
SUNLIGHT       CLOUDY    28  28 100 MISG      30.49S FOG
WILKERSON PASS PTSUNNY   34  19  55 NW6       30.40S WCI  29
$$

COZ069>075-212100-
...SAN LUIS VALLEY/SANGRE DE CRISTO MOUNTAINS...

CITY           SKY/WX    TMP DP  RH WIND       PRES   REMARKS
ALAMOSA        FAIR      54  24  31 W14       30.27F
DEL NORTE      CLOUDY    55  22  28 NE8       30.30F
LA VETA PASS   CLOUDY    34  27  75 N13G18      N/A  WCI  25
SAGUACHE       PTSUNNY   52  27  37 NW24G30   30.31S
$$

COZ035-036-038>040-212100-
...NORTHERN COLORADO FRONT RANGE...

CITY           SKY/WX    TMP DP  RH WIND       PRES   REMARKS
DENVER INTL AP CLOUDY    42  31  64 CALM      30.32F
DMNS CITY PARK   N/A     43  31  63 SE12      30.31F
AURORA         CLOUDY    42  31  64 CALM      30.32F
FRONT RANGE AP PTSUNNY   41  32  70 CALM      30.33F
ERIE MUNI ARPT PTSUNNY   44  32  62 CALM      30.36F
BOULDER MUN AP CLOUDY    41  34  75 CALM      30.31S
CENTENNIAL     PTSUNNY   41  34  76 SE3       30.31F
BROOMFIELD     NOT AVBL
FORT COLLINS   CLOUDY    41  36  82 S6        30.31F
LONGMONT       CLOUDY    45  34  65 S3        30.33F
$$

COZ041-046-047-076>085-087-088-212100-
...PIKES PEAK/PALMER DIVIDE AND SOUTHERN FOOTHILLS...

CITY           SKY/WX    TMP DP  RH WIND       PRES   REMARKS
COLO. SPRINGS  PTSUNNY   50  32  50 N10       30.30F
A. F. ACADEMY  MOSUNNY   46  34  62 NW7       30.29F
SCHRIEVER AFB  PTSUNNY   47  31  55 NE10      30.31S
CHEYENNE MTN   PTSUNNY   42  35  77 N3        30.25S
ELLICOTT         N/A    N/A N/A N/A NE13      30.31R
FALCON         PTSUNNY   43  32  64 N13G18    30.31F
FORT CARSON    NOT AVBL
LIMON          PTSUNNY   45  28  51 N10       30.32S
MONUMENT HILL  CLOUDY    36  32  87 CALM      30.33F
CANON CITY     CLOUDY    54  36  50 E16       30.30S
WALSENBURG     MOCLDY    48  37  66 NE6       30.33S
TRINIDAD       FAIR      48  35  60 NE5       30.33S
$$

COZ042>045-048>051-090-091-212100-
...NORTHEAST COLORADO...

CITY           SKY/WX    TMP DP  RH WIND       PRES   REMARKS
GREELEY ARPT   FAIR      46  32  58 SW8       30.32F
AKRON          FAIR      43  26  51 NW9G17    30.31F
BURLINGTON     FAIR      47  28  47 NE17      30.30S
WRAY           NOT AVBL
YUMA           FAIR      43  28  56 NW10G16   30.32R
STERLING       FAIR      46  30  53 N9        30.30F
HOLYOKE        FAIR      46  27  46 N10       30.32S
FORT MORGAN    FAIR      47  26  43 NW3       30.32F
$$

COZ086-089-092>099-212100-
...SOUTHEAST COLORADO...

CITY           SKY/WX    TMP DP  RH WIND       PRES   REMARKS
PUEBLO         FAIR      54  35  48 E7        30.30F
LA JUNTA       FAIR      54  28  36 MISG      30.31R
LAMAR          FAIR      53  26  35 NE10      30.29R
SPRINGFIELD      N/A     51  27  39 N20G28    30.28R
$$



USA.gov is the U.S. government's official web portal to all federal, state and local government web resources and services.